ATLAS D DEB, 2337

Orbit data source: Space-Track

ATLAS D DEB, 2337 is space debris in LEO originally from a launch on Thu, 14 Jul 1966 UTC launched from the Air Force Western Test Range (AFWTR). Debris objects in space refer to the collection of defunct objects orbiting the Earth. Examples of debris include non-operational satellites, rocket bodies, and fragments generated from explosions, collisions, or faulty payload assembly.

Loading next visibility...
Identifier
2337, 1966-063E
Orbit
LEO
Country
Flag of USUS
Related business
Manufacturer
Unknown
Mission
Spacecraft
Bus & Motor
Unknown
Mass
9 kg wet, 9 kg dry
Launch date (UTC)
1966-07-14 (60 years ago)
Launch vehicle
Unknown
Launch site
Air Force Western Test Range (AFWTR)
Object type
Payload
Rocket body
Debris
Shape & HBR
Unknown
Radar Cross Section
Medium (>0.1 m² and <1 m²)

Expand to show TLE details & history
Last TLE update: 5 hours ago

TLE from 5 hours ago
0 ATLAS D DEB
1 02337U 66063E   26072.61233100  .00000375  00000-0  13602-3 0  9999
2 02337 144.2328  82.5076 0004670  81.9552  49.0159 13.72276525988931
Epoch: 2026-03-13T14:41Z
TLE epoch observation values (Epoch: 2026-03-13T14:41:45.398Z)
Latitude
26.27311°
Longitude
-86.19818°
Altitude
988.501 km
Speed
7.363 km/s
True Right ascension
20h 21m 56s
True Declination
26° 08' 28"
Sunlit
Object was in daylight at epoch
Visualization orbit readout
Latitude
Unknown
Longitude
Unknown
Altitude
Unknown
Speed
Unknown
Apparent Right ascension
Unknown
Apparent Declination
Unknown
Sunlit
N/A
Visualization observer readout
Local Sidereal Time
00:20:23
Azimuth
Unknown
Elevation
Unknown
Doppler factor
Unknown
Orbital elements
Apogee altitude
997.771 km
Perigee altitude
990.885 km
Semi-major axis
7,372.465 km
Eccentricity
0.00047
Inclination
144.2328°
RAAN
82.5076°
Arg. of periapsis
81.9552°
True anomaly
49.05631°
Mean anomaly
49.0159°
Eccentric anomaly
49.0361°
Mean motion
3.42866 °/min
Orbital period
105 mins
BSTAR
0.00013602
Loading maneuver chart data...
Computing Atmospheric mass density...
Loading historical data...
Loading historical data...
Loading historical data...
Loading historical data...
Loading historical data...
Loading historical data...
Loading historical data...

Documentation

Showing up to 5 results
|